Regional Weather Roundup
Issued by NWS

Home | Current Version | Previous Version | Text Only | Print | Product List | Glossary On
Versions: 1 2 3 4 5 6 7 8 9 10 11 12 13 14 15 16 17 18 19 20 21 22 23 24 25 26 27 28 29 30 31 32 33 34 35 36 37 38 39 40 41 42 43 44 45 46 47 48 49 50
000
ASUS46 KSTO 240615
RWRCA

NORTHERN AND CENTRAL CA REGIONAL WEATHER ROUNDUP
NATIONAL WEATHER SERVICE SACRAMENTO CA
1000 PM PST THU NOV 23 2017

NOTE: FAIR INDICATES FEW OR NO CLOUDS BELOW 12,000 FEET WITH NO
SIGNIFICANT WEATHER AND/OR OBSTRUCTIONS TO VISIBILITY.

CAZ001-003-240700-
NORTHWEST AREA

CITY           SKY/WX    TMP DP  RH WIND       PRES   REMARKS
CRESCENT CITY  CLOUDY    53  53 100 NW12      30.14R
UKIAH          CLOUDY    58  55  90 SW5       30.13R
$$

CAZ006-505>513-240700-
BAY AREA

CITY           SKY/WX    TMP DP  RH WIND       PRES   REMARKS
SANTA ROSA     FOG       55  55 100 SW3       30.11R VSB 3/4
SAN RAFAEL     N/A       64  MM  MM MISG
NAPA           PTCLDY    55  54  96 CALM      30.11R
CONCORD        MOCLDY    65  58  78 CALM      30.10R
OAKLAND CITY   N/A      MM  MM  MM MISG
OAKLAND        CLOUDY    59  57  93 CALM      30.11S
SAN FRAN CITY  N/A       62  MM  82 MISG
SAN FRAN ARPT  CLOUDY    63  58  83 W13       30.11R
LIVERMORE      CLOUDY    61  56  83 CALM      30.10R
HAYWARD        CLOUDY    61  54  77 CALM      30.10S
REDWOOD CITY   N/A       60  MM  87 MISG
MOFFETT ARPT   CLOUDY    60  57  89 CALM      30.11S
SAN JOSE ARPT  CLOUDY    63  56  78 CALM      30.11S
$$
CAZ034-037-514>518-240700-
CENTRAL COAST

CITY           SKY/WX    TMP DP  RH WIND       PRES   REMARKS
WATSONVILLE    CLOUDY    61  61 100 CALM      30.10R
SALINAS        CLOUDY    63  56  78 W3        30.08S
MONTEREY       CLOUDY    62  55  77 CALM      30.11R
SAN LUIS OBISP CLEAR     67  47  48 VRB3      30.00R
SANTA MARIA    CLEAR     56  49  77 E3        30.00R
$$
CAZ015-016-240700-
NORTHERN SACRAMENTO VALLEY

CITY           SKY/WX    TMP DP  RH WIND       PRES   REMARKS
REDDING        CLOUDY    55  54  96 CALM      30.06R
RED BLUFF      PTCLDY    53  52  96 CALM      30.07R FOG
OROVILLE       CLEAR     55  54  96 E5        30.09R
$$
CAZ016>018-240700-
SOUTHERN SACRAMENTO VALLEY

CITY           SKY/WX    TMP DP  RH WIND       PRES   REMARKS
AUBURN         MOCLDY    61  54  77 E5        30.11S
BEALE AFB      PTCLDY    54  54 100 E3        30.07R FOG
LINCOLN        FAIR      52  52 100 CALM      30.07S
MARYSVILLE     FOG       51  51 100 CALM      30.09R VSB 1/4
SAC INTL ARPT  PTCLDY    57  57 100 CALM      30.08R
MATHER AIRPORT MOCLDY    57  55  94 CALM      30.08R
DOWNTOWN SAC   N/A       58  MM  MM MISG
SAC EXEC ARPT  FOG       56  56 100 CALM      30.09R VSB 3/4
VACAVILLE      PTCLDY    57  56  96 CALM      30.09R
TRAVIS AFB     MOCLDY    61  60  96 SW13      30.06R
$$
CAZ019>021-240700-
SAN JOAQUIN VALLEY

CITY           SKY/WX    TMP DP  RH WIND       PRES   REMARKS
STOCKTON       CLOUDY    60  58  92 N3        30.08R
MODESTO        CLOUDY    62  58  86 NW5       30.07S
MERCED         CLOUDY    59  54  83 W7        30.07S
FRESNO         PTCLDY    61  55  81 CALM      30.08S HAZE
HANFORD        PTCLDY    56  55  97 CALM      30.09S FOG
PORTERVILLE    CLEAR     53  48  83 E6        30.10R HAZE
BAKERSFIELD    CLEAR     59  48  67 CALM      30.09R HAZE
$$
CAZ011-012-071-240700-
NORTHERN MOUNTAINS

CITY           SKY/WX    TMP DP  RH WIND       PRES   REMARKS
YREKA          MOCLDY    53  52  96 CALM      30.05S
MOUNT SHASTA   MOCLDY    52  51  97 CALM      30.08R
ALTURAS        CLOUDY    51  44  77 SW5       30.08S
$$
CAZ011-012-071-240700-
SIERRA NEVADA MTNS

CITY           SKY/WX    TMP DP  RH WIND       PRES   REMARKS
BLUE CANYON    CLOUDY    51  39  63 SE3       30.23S
TRUCKEE        PTCLDY    43  30  61 NE5       30.20F
TAHOE VLY ARPT PTCLDY    54  34  46 S13G26    30.19F
MAMMOTH LAKES  FAIR      45  27  49 SW6       30.29F
$$




USA.gov is the U.S. government's official web portal to all federal, state and local government web resources and services.